Location: Proctor
(47.8934°N, 114.3048°W)
Time: 11:39:25
(UTC+00:00)

Transit 4A - Pass Details

Date: 25 June 2024
Orbit: 870 x 973 km, 66.8° (Epoch: 13 July)

Event Time Altitude Azimuth Distance (km) Brightness Sun altitude
Rises 07:06:20 0° 252° (WSW) 3,457 10.8 -18.3°
Reaches altitude 10° 07:09:10 10° 264° (W) 2,518 10.2 -18.4°
Maximum altitude 07:14:08 28° 323° (NW) 1,570 9.7 -18.5°
Drops below altitude 10° 07:19:08 10° 22° (NNE) 2,538 11.1 -18.6°
Sets 07:22:00 0° 33° (NNE) 3,489 11.8 -18.6°
